Charlottetown, Prince Edward Island

9:22 AM ADT on June 29, 2017 (GMT -0300)
Charlottetown

Weather History for CYYG - March, 2012

Change the Weather History Date:

Wednesday, March 28, 2012

  Actual Average Record
Temperature  
Mean Temperature 26 °F -  
Max Temperature 28 °F 42 °F 60 °F (1999)
Min Temperature 21 °F 28 °F 19 °F (2011)
Degree Days  
Heating Degree Days 40    
Moisture  
Dew Point 15 °F    
Average Humidity 63    
Maximum Humidity 80    
Minimum Humidity 44    
Precipitation  
Precipitation 0.01 in 0.12 in - ()
Sea Level Pressure  
Sea Level Pressure 29.87 in    
Wind  
Wind Speed 12 mph ()    
Max Wind Speed 20 mph    
Max Gust Speed 33 mph    
Visibility 15.0 miles    
Events Snow    
Averages and records for this station are not official NWS values.
T = Trace of Precipitation, MM = Missing Value Source: Averaged Metar Reports

Daily Weather History Graph

Daily Weather History Graph

Search for Another Location

Airport or City:

Trip Planner

Search our weather history database for the weather conditions in past years. The results will help you decide how hot, cold, wet, or windy it might be!

Date:

Astronomy

Mar. 28, 2012 Rise Set
Actual Time 6:59 AM ADT 7:36 PM ADT
Civil Twilight 6:28 AM ADT 8:06 PM ADT
Nautical Twilight 5:53 AM ADT 8:42 PM ADT
Astronomical Twilight 5:15 AM ADT 9:20 PM ADT
Moon 9:54 AM ADT (3/28) 12:52 AM ADT (3/28)
Length of Visible Light 13h 37m
Length of Day
12h 37m
Waxing Crescent, 29% of the Moon is Illuminated
Mar 28
Waxing Crescent
Mar 30
First Quarter
Apr 6
Full
Apr 13
Last Quarter
Apr 21
New

Hourly Weather History & Observations

Time (ADT) Temp. Windchill Dew Point Humidity Pressure Visibility Wind Dir Wind Speed Gust Speed Precip Events Conditions
12:00 AM 26.6 °F 13.1 °F 14.0 °F 59% 29.86 in 15.0 mi NNW 19.6 mph 33.4 mph N/A Snow Light Snow Showers
1:00 AM 24.8 °F 12.9 °F 12.2 °F 59% 29.87 in 15.0 mi North 13.8 mph 28.8 mph N/A Snow Light Snow
2:00 AM 24.8 °F 12.4 °F 12.2 °F 59% 29.87 in 15.0 mi North 15.0 mph 24.2 mph N/A Snow Light Snow
3:00 AM 25 °F - 12 °F 44% 29.88 in 15 mi North 17.3 mph - - Snow Light Snow
3:00 AM 24.8 °F 11.5 °F 12.2 °F 59% 29.88 in 15.0 mi North 17.3 mph 25.3 mph N/A Snow Light Snow
4:00 AM 24.8 °F 11.9 °F 10.4 °F 54% 29.87 in 15.0 mi North 16.1 mph 24.2 mph N/A Snow Light Snow
5:00 AM 24.8 °F 12.4 °F 12.2 °F 59% 29.88 in 15.0 mi North 15.0 mph 29.9 mph N/A   Overcast
6:00 AM 24.8 °F 11.1 °F 12.2 °F 59% 29.88 in 15.0 mi North 18.4 mph 25.3 mph N/A Snow Light Snow
7:00 AM 23.0 °F 11.1 °F 12.2 °F 63% 29.89 in 15.0 mi North 12.7 mph 21.9 mph N/A Snow Light Snow Showers
8:00 AM 24.8 °F 12.4 °F 12.2 °F 59% 29.91 in 15.0 mi NNW 15.0 mph 21.9 mph N/A Snow Light Snow Showers
9:00 AM 24 °F - 13 °F 50% 29.91 in 15 mi North 16.1 mph - - Snow Light Snow Showers
9:00 AM 24.8 °F 11.9 °F 14.0 °F 64% 29.91 in 15.0 mi North 16.1 mph 23.0 mph N/A Snow Light Snow Showers
10:00 AM 26.6 °F 16.8 °F 15.8 °F 64% 29.90 in 15.0 mi North 10.4 mph 20.7 mph N/A Snow Light Snow Showers
11:00 AM 26.6 °F 15.7 °F 15.8 °F 64% 29.90 in 15.0 mi North 12.7 mph 20.7 mph N/A Snow Light Snow Showers
12:00 PM 26.6 °F 15.2 °F 15.8 °F 64% 29.90 in 15.0 mi North 13.8 mph - N/A Snow Light Snow Showers
1:00 PM 26.6 °F 16.2 °F 17.6 °F 69% 29.89 in 15.0 mi North 11.5 mph - N/A Snow Light Snow Showers
1:22 PM 26.6 °F 16.2 °F - N/A% - 15.0 mi North 11.5 mph 18.4 mph N/A   Overcast
2:00 PM 26.6 °F 17.5 °F 17.6 °F 69% 29.87 in 15.0 mi North 9.2 mph - N/A   Overcast
3:00 PM 27 °F - 18 °F 57% 29.86 in 15 mi North 8.1 mph - -   Overcast
3:00 PM 26.6 °F 19.1 °F 17.6 °F 69% 29.86 in 15.0 mi North 6.9 mph - N/A   Overcast
4:00 PM 28.4 °F 19.1 °F 17.6 °F 64% 29.85 in 15.0 mi North 10.4 mph - N/A   Overcast
5:00 PM 26.6 °F 17.5 °F 17.6 °F 69% 29.84 in 15.0 mi North 9.2 mph - N/A   Overcast
6:00 PM 26.6 °F 17.5 °F 17.6 °F 69% 29.84 in 15.0 mi NNW 9.2 mph - N/A   Overcast
7:00 PM 26.6 °F 20.0 °F 17.6 °F 69% 29.84 in 15.0 mi North 5.8 mph - N/A   Overcast
8:00 PM 26.6 °F 20.0 °F 17.6 °F 69% 29.84 in 15.0 mi NNW 5.8 mph - N/A   Overcast
9:00 PM 26 °F - 18 °F 60% 29.84 in 15 mi North 4.6 mph - -   Overcast
9:00 PM 26.6 °F 21.2 °F 17.6 °F 69% 29.84 in 15.0 mi North 4.6 mph - N/A   Overcast
10:00 PM 23.0 °F - 15.8 °F 74% 29.82 in 15.0 mi NE 2.3 mph - N/A   Mostly Cloudy
11:00 PM 21.2 °F - 15.8 °F 80% 29.81 in 15.0 mi West 2.3 mph - N/A   Mostly Cloudy